DMSP 5D-2 F11 (USA 73)

Satellite information

Favourite Embed

Satellite Type and Status

PAYLOADIN ORBIT

Key statistics

Satellite DMSP 5D-2 F11 (USA 73) at a glance.

Uptime

12213

Days in orbit

Revolutions

≈ 14.2

Per day

Orbit

SSO

Sun Synchronous Orbit

Inclination

98.7

Latest

Satellite identification and parameters

Extended collection of information and parameters for DMSP 5D-2 F11 (USA 73).

Object identification

Identified? True

Debris? False

Object name: DMSP 5D-2 F11 (USA 73)

International designator: 1991-082A

Object number (NORAD): 21798

Object ID (CCSDS): 21798

Country: UNITED STATES OF AMERICA (US)

Current information (Y/N): Y

RCS size: LARGE

Orbital parameters

Period: 101.602 minutes

Inclination: 98.7314 deg

SMA: 7212.643 km

Apoapsis: 843.88 km

Periapsis: 825.136 km

RAAN: 156.0655 deg

Eccentricy: 0.0012994

Argument of periapsis: 9.8626 deg

Mean anomaly: 350.2802 deg

Mean motion: 14.17297776 rev/day

Mean motion (dot): 0.00000206 rev/day2

B* drag term: 0.00012364 1/REarth

Two-line elements (TLE)

Creation date: May 5, 2025, 2:11 a.m.

Reference frame: TEME

Reference center: EARTH

Epoch: May 4, 2025, 7:51 p.m. UTC

TLE line 0: 0 DMSP 5D-2 F11 (USA 73)

TLE line 1: 1 21798U 91082A 25124.82722922 .00000206 00000-0 12364-3 0 9992

TLE line 2: 2 21798 98.7314 156.0655 0012994 9.8626 350.2802 14.17297776727282

Live tracking on map

Real-time ground track for satellite DMSP 5D-2 F11 (USA 73).

In-orbit conjunctions

A list of the most updated potential collisions computed for object DMSP 5D-2 F11 (USA 73).

Target Orbit TCA Probability of collision Miss distance Type
FENGYUN 1C DEB SSO 2025-04-07 19:22:03 0.0001493862 819.0 (m) DEBRIS

Associated space launch

Military meteorological satellite

DMSP 5D-2 F11 (USA 73) was lifted into orbit during the mission ‘Atlas E | DMSP-5D2 F11’, on board a Atlas E space rocket.

The launch took place on Nov. 28, 1991, 1:23 p.m. from Space Launch Complex 3W.

For more information about the launch, click the button.

Launch to space Atlas E | DMSP-5D2 F11
Atlas E | DMSP-5D2 F11

Agency: N/A

Status: Launch Successful

Launch date: Nov. 28, 1991, 1:23 p.m. UTC

Rocket: Atlas E

Launch pad: Space Launch Complex 3W

Location: Vandenberg SFB, CA, USA

...

Latest news about this satellite

There are no fresh news available about this satellite. Check back as we update our databases every day.


Newsletter sign-up

Weekly statistics, charts and insights to help you stay on top of the space industry.